DROR 1

Last updated on Mon Oct 20 2025 00:02:51 GMT+0000 (Coordinated Universal Time)

1 64784U 25148A 25292.26653721 .00000000 00000+0 00000+0 0 9999 2 64784 0.0150 251.2032 0000955 47.4537 181.3030 1.00272350 883
UTC large
Height (km)
Speed (km/s)
/
Latitude / Longitude
Inclination (degrees)
Orbital Period (minutes)
Azimuth
Elevation
Range (km)
Doppler Factor

Next 0 passes for location: London (51.5072 / 0.1276)

Sorry there are no passes over London.